This is the latest recevied weather packets stored in our database for station/object WA1OUI. If no packets are shown the sender has not sent any weather packets the latest 10 day(s).
| Time | Temp. | Humidity | Pressure | Rain* | Wind** | Luminosity | Snow |
|---|---|---|---|---|---|---|---|
| 1777675491 | 15.56° C | 40% | 1007.8 hPa | 0 mm | - | 31 W/m² | - |
| 1777675188 | 15.56° C | 40% | 1007.7 hPa | 0 mm | - | 36 W/m² | - |
| 1777674884 | 15.56° C | 37% | 1007.7 hPa | 0 mm | - | 31 W/m² | - |
| 1777674579 | 15.56° C | 39% | 1007.7 hPa | 0 mm | - | 33 W/m² | - |
| 1777674278 | 16.11° C | 35% | 1007.7 hPa | 0 mm | - | 32 W/m² | - |
| 1777673974 | 16.11° C | 34% | 1007.7 hPa | 0 mm | - | 29 W/m² | - |
| 1777673670 | 16.11° C | 34% | 1007.5 hPa | 0 mm | - | 28 W/m² | - |
| 1777673368 | 16.11° C | 36% | 1007.7 hPa | 0 mm | - | 28 W/m² | - |
| 1777673066 | 16.11° C | 32% | 1007.7 hPa | 0 mm | - | 31 W/m² | - |
| 1777672761 | 16.67° C | 34% | 1007.5 hPa | 0 mm | - | 42 W/m² | - |
| 1777672458 | 16.67° C | 34% | 1007.7 hPa | 0 mm | - | 58 W/m² | - |
| 1777672154 | 16.67° C | 33% | 1007.7 hPa | 0 mm | - | 50 W/m² | - |
| 1777671849 | 16.67° C | 31% | 1007.8 hPa | 0 mm | - | 43 W/m² | - |
| 1777671545 | 16.67° C | 31% | 1007.6 hPa | 0 mm | - | 47 W/m² | - |
| 1777671242 | 16.67° C | 33% | 1007.9 hPa | 0 mm | - | 48 W/m² | - |
| 1777670937 | 16.67° C | 34% | 1007.7 hPa | 0 mm | - | 52 W/m² | - |
| 1777670634 | 16.67° C | 31% | 1007.8 hPa | 0 mm | - | 72 W/m² | - |
| 1777670331 | 16.67° C | 34% | 1007.9 hPa | 0 mm | - | 68 W/m² | - |
| 1777670029 | 17.22° C | 33% | 1007.7 hPa | 0 mm | - | 57 W/m² | - |
| 1777669726 | 17.22° C | 31% | 1007.8 hPa | 0 mm | - | 63 W/m² | - |
| 1777669423 | 17.22° C | 31% | 1007.9 hPa | 0 mm | - | 49 W/m² | - |
| 1777669119 | 17.22° C | 29% | 1007.7 hPa | 0 mm | - | 97 W/m² | - |
| 1777668816 | 17.78° C | 32% | 1007.7 hPa | 0 mm | - | 111 W/m² | - |
| 1777668513 | 17.78° C | 32% | 1007.7 hPa | 0 mm | - | 134 W/m² | - |
| 1777668209 | 17.78° C | 32% | 1007.5 hPa | 0 mm | - | 207 W/m² | - |
* Rain latest hour (hover to see other rain measurements)
** Current wind speed in m/s (hover to see current wind gust speed)